Temperature
-2 -2 -2 -2 -2 -2 -2 -2 -2 -2 -2 -2 -1 -2 -2 -2 -2 -2 -2 -2 -1 -1 -1 -1 -1 -1 -1 -1 -1 -1 -1 -1 -0 -0 0 1 1 1 1 1 1 1 1
-2 -3 -2 -3 -3 -2 -2 -2 -2 -2 -2 -2 -2 -2 -2 -2 -2 -2 -2 -2 -2 -2 -2 -2 -2 -2 -2 -1 -1 -1 -1 -1 -1 -1 -0 -0 -0 0 0 0 0 0 0
-3 -3 -3 -3 -3 -3 -3 -3 -3 -3 -3 -3 -3 -3 -3 -3 -3 -3 -3 -3 -3 -2 -2 -2 -2 -2 -2 -2 -2 -2 -2 -2 -2 -2 -1 -1 -1 -1 -1 -1 -1 -1 -1
-4 -4 -4 -4 -4 -4 -4 -4 -4 -4 -4 -4 -4 -4 -4 -4 -4 -4 -4 -4 -3 -3 -3 -3 -3 -3 -3 -3 -2 -2 -3 -3 -3 -3 -2 -2 -2 -2 -2 -1 -1 -1 -1
-4 -5 -4 -4 -4 -5 -5 -4 -4 -4 -5 -4 -4 -4 -5 -5 -5 -5 -5 -5 -4 -4 -4 -4 -3 -3 -3 -3 -3 -3 -3 -3 -3 -3 -3 -3 -2 -2 -2 -2 -2 -2 -2
-5 -5 -5 -5 -5 -5 -5 -5 -5 -5 -5 -5 -5 -5 -5 -5 -5 -5 -6 -5 -5 -5 -5 -5 -4 -4 -4 -4 -4 -4 -4 -4 -4 -4 -4 -3 -3 -3 -3 -3 -3 -3 -3
-6 -6 -6 -6 -6 -6 -6 -6 -6 -6 -6 -6 -6 -6 -6 -6 -6 -6 -6 -6 -6 -6 -6 -5 -5 -5 -5 -4 -4 -4 -4 -4 -4 -4 -4 -4 -3 -3 -3 -3 -3 -3 -3
-7 -7 -7 -7 -7 -7 -7 -7 -7 -7 -7 -7 -7 -7 -7 -7 -7 -7 -7 -7 -7 -6 -6 -6 -6 -5 -5 -5 -5 -5 -5 -5 -5 -5 -5 -4 -4 -4 -4 -4 -4 -4 -4
-7 -7 -7 -7 -7 -7 -7 -7 -7 -8 -8 -7 -7 -7 -7 -7 -7 -7 -7 -7 -7 -7 -7 -6 -6 -6 -5 -5 -6 -5 -5 -5 -5 -5 -5 -5 -5 -5 -4 -4 -4 -4 -4
-8 -8 -8 -8 -8 -8 -8 -8 -8 -8 -8 -8 -8 -8 -8 -8 -8 -8 -8 -8 -8 -7 -7 -7 -6 -6 -6 -6 -6 -6 -6 -6 -6 -6 -6 -5 -5 -5 -5 -5 -5 -5 -5
-9 -9 -9 -9 -9 -9 -9 -9 -9 -9 -9 -9 -9 -9 -9 -9 -8 -8 -8 -8 -8 -8 -8 -7 -7 -6 -7 -6 -7 -6 -6 -6 -6 -6 -6 -6 -6 -6 -5 -5 -5 -5 -5
-10 -10 -10 -10 -10 -10 -10 -10 -10 -10 -10 -10 -10 -10 -10 -9 -9 -9 -9 -9 -9 -9 -8 -8 -7 -7 -7 -7 -7 -7 -7 -7 -6 -6 -6 -6 -6 -6 -6 -6 -6 -6 -6
-10 -10 -10 -10 -10 -11 -11 -11 -11 -11 -11 -11 -11 -11 -10 -10 -10 -10 -10 -10 -9 -9 -9 -9 -8 -8 -8 -8 -7 -7 -7 -7 -7 -7 -7 -7 -7 -6 -6 -6 -6 -6 -6
-11 -11 -11 -11 -11 -11 -11 -11 -12 -12 -12 -12 -12 -12 -11 -11 -11 -10 -10 -10 -10 -10 -10 -9 -9 -9 -9 -8 -8 -8 -8 -8 -8 -8 -8 -7 -7 -7 -7 -7 -7 -7 -7
-12 -12 -12 -12 -12 -12 -12 -12 -12 -12 -13 -13 -13 -12 -12 -12 -12 -11 -11 -11 -11 -10 -10 -10 -10 -9 -9 -9 -9 -9 -9 -9 -9 -8 -8 -8 -8 -8 -8 -8 -8 -8 -8
-13 -13 -13 -13 -13 -13 -13 -13 -13 -13 -13 -13 -13 -13 -13 -13 -12 -12 -12 -11 -11 -11 -11 -11 -11 -10 -10 -10 -10 -10 -9 -9 -9 -9 -9 -9 -9 -8 -8 -8 -8 -8 -8
-13 -13 -14 -14 -14 -14 -14 -14 -13 -13 -13 -13 -13 -13 -13 -13 -13 -13 -12 -12 -12 -12 -12 -12 -12 -11 -11 -11 -11 -11 -10 -10 -10 -10 -9 -9 -9 -9 -9 -9 -9 -9 -9
-14 -14 -14 -14 -14 -14 -14 -14 -14 -14 -14 -13 -13 -13 -14 -13 -13 -13 -13 -13 -13 -13 -13 -13 -12 -12 -12 -12 -12 -11 -11 -11 -11 -10 -10 -10 -10 -10 -10 -10 -10 -9 -9
-15 -15 -15 -15 -15 -15 -15 -15 -15 -15 -15 -14 -14 -14 -14 -14 -14 -14 -13 -14 -14 -14 -13 -13 -13 -13 -13 -13 -12 -12 -12 -12 -12 -11 -11 -11 -11 -11 -11 -10 -10 -10 -10
-15 -15 -15 -15 -16 -16 -15 -16 -16 -15 -15 -15 -15 -15 -15 -15 -14 -14 -14 -14 -14 -14 -14 -14 -14 -13 -13 -13 -13 -13 -13 -12 -12 -12 -12 -12 -12 -11 -11 -11 -11 -11 -11
-16 -16 -16 -16 -16 -16 -16 -16 -16 -16 -16 -16 -16 -15 -16 -16 -15 -15 -15 -15 -15 -15 -15 -15 -14 -14 -14 -14 -14 -14 -13 -13 -13 -13 -13 -12 -12 -12 -12 -12 -11 -11 -11
-16 -16 -16 -16 -16 -16 -17 -17 -17 -16 -16 -16 -16 -16 -16 -16 -16 -16 -16 -15 -15 -15 -15 -15 -15 -15 -14 -14 -14 -14 -14 -14 -14 -13 -13 -13 -13 -13 -12 -12 -12 -12 -12
-17 -17 -17 -17 -17 -17 -17 -17 -17 -17 -17 -17 -17 -17 -16 -16 -16 -16 -16 -16 -16 -15 -15 -15 -15 -15 -15 -15 -15 -15 -14 -14 -14 -14 -14 -13 -13 -13 -13 -13 -13 -12 -12
-17 -17 -17 -17 -17 -17 -17 -17 -17 -17 -17 -17 -17 -17 -17 -17 -17 -17 -16 -16 -16 -16 -16 -16 -16 -15 -15 -15 -15 -15 -15 -15 -14 -14 -14 -14 -14 -14 -14 -13 -13 -13 -13
-18 -18 -18 -18 -18 -18 -18 -18 -18 -18 -18 -18 -18 -17 -17 -17 -17 -17 -17 -17 -16 -16 -16 -16 -16 -16 -16 -16 -15 -15 -15 -15 -15 -15 -15 -15 -14 -14 -14 -14 -14 -14 -14
-18 -18 -18 -18 -18 -18 -18 -18 -18 -18 -18 -18 -18 -18 -18 -18 -17 -17 -17 -17 -17 -17 -16 -16 -16 -16 -16 -16 -16 -16 -15 -15 -15 -15 -15 -15 -15 -15 -14 -14 -14 -14 -14
Wind_Speed
3 3 3 3 3 3 3 3 4 3 3 4 4 4 4 4 5 5 5 5 6 6 6 6 7 6 5 5 5 5 6 6 7 6 4 5 6 6 7 8 9 9 9
3 3 3 3 2 2 3 3 3 3 4 4 4 5 5 5 5 6 6 6 6 7 7 7 7 6 7 6 5 6 6 6 6 7 6 6 7 7 7 8 8 9 9
3 3 2 3 3 3 3 3 3 3 3 4 4 5 5 5 5 6 6 6 6 7 7 8 7 7 7 6 7 6 6 6 6 6 7 6 6 6 7 7 8 7 9
3 3 3 3 3 3 3 2 3 3 3 4 4 5 5 5 5 6 6 6 7 7 7 8 8 8 8 8 7 7 6 6 6 6 7 6 6 6 6 7 7 7 7
3 3 3 3 3 3 2 2 2 3 3 4 4 4 4 5 5 6 6 7 7 8 8 8 9 10 10 9 8 7 7 7 7 7 7 7 7 6 7 6 7 6 7
2 3 3 2 2 2 2 2 2 3 3 3 3 4 4 4 7 8 7 7 7 8 8 8 8 9 10 12 12 12 11 10 9 8 8 9 9 9 8 7 7 6 6
2 2 2 2 2 2 2 2 2 3 3 3 3 4 5 6 8 9 9 7 7 8 8 8 7 8 9 9 11 12 13 14 14 11 11 11 10 9 9 9 9 8 7
2 2 2 2 2 2 2 2 3 3 3 3 4 4 5 6 8 8 9 7 7 8 9 9 9 9 9 9 9 9 10 11 12 11 11 11 10 10 9 9 9 8 6
2 3 3 3 3 2 2 3 3 3 3 4 4 4 5 7 8 8 7 6 6 8 8 9 10 9 11 12 10 10 10 10 11 13 14 14 14 13 11 7 7 7 7
3 3 3 3 3 3 3 4 4 3 4 4 4 5 5 6 7 8 7 5 6 7 7 8 11 11 12 12 10 10 11 10 9 9 10 11 12 13 14 12 9 9 7
4 3 3 3 3 3 3 3 3 3 3 3 4 4 5 6 7 8 8 5 6 6 6 7 7 12 13 13 12 10 12 10 9 9 8 8 8 8 10 10 10 9 9
3 3 3 3 3 3 3 3 3 3 3 4 4 4 4 5 6 8 9 9 8 7 7 6 7 11 12 12 11 11 12 10 7 7 8 8 8 8 8 9 10 10 9
3 3 3 3 3 3 3 3 3 3 3 3 4 4 5 5 6 8 9 10 10 7 7 10 11 11 11 10 11 11 9 7 7 7 8 8 7 7 6 6 6 6 6
3 3 3 3 3 3 3 3 3 3 3 4 4 5 5 5 5 5 6 7 9 8 8 9 11 12 9 8 8 7 6 6 7 7 7 6 5 5 6 6 5 5 5
3 3 3 3 3 3 3 3 4 4 4 4 4 5 5 6 7 9 7 6 6 7 6 5 5 5 5 5 5 5 5 5 6 6 6 5 5 6 6 5 5 5 6
3 3 3 3 3 3 4 4 5 6 7 8 8 7 7 9 10 10 10 10 9 8 5 4 5 5 5 5 5 5 5 5 6 5 5 6 6 6 6 5 6 7 7
4 4 3 3 4 4 4 4 5 6 7 7 8 9 9 10 10 10 10 9 8 6 4 4 4 5 5 5 5 5 5 5 5 5 5 6 6 6 6 6 6 7 7
4 4 4 4 4 4 4 4 5 5 6 6 7 9 10 10 10 10 9 7 5 4 4 4 4 5 5 5 5 5 5 5 4 5 5 5 5 6 6 6 7 8 7
4 4 4 4 4 4 4 5 5 5 5 6 6 7 9 10 10 9 7 4 4 4 4 5 5 5 5 5 5 5 5 5 5 5 5 5 5 6 6 7 7 8 8
4 6 5 4 4 4 4 4 5 5 5 5 5 6 6 7 6 6 5 4 4 5 5 5 5 5 5 5 5 4 5 5 5 5 5 5 5 5 6 7 7 7 7
4 5 6 5 4 4 4 5 5 5 5 5 6 7 8 6 6 6 5 5 5 5 5 6 5 5 5 5 5 5 5 5 5 5 5 5 5 5 5 6 6 6 6
4 4 4 4 4 4 5 5 5 5 5 6 6 7 9 6 5 5 5 6 6 5 6 6 6 5 5 5 5 5 5 5 5 5 5 4 4 5 5 5 6 6 5
4 4 4 4 4 6 6 5 5 5 6 6 6 6 6 6 6 6 6 6 6 6 6 6 6 6 6 6 6 6 5 6 6 5 5 5 4 4 5 5 6 6 6
4 5 5 5 5 5 5 5 5 6 6 6 6 6 6 6 7 7 7 7 7 7 7 7 7 8 9 8 7 7 7 7 7 7 7 6 5 5 5 5 5 6 6
4 4 5 5 5 5 5 6 6 6 6 6 6 7 7 7 7 8 7 7 8 7 8 8 8 8 9 9 9 8 9 10 9 8 8 6 6 6 5 6 5 5 5
4 5 5 5 5 5 5 6 6 7 6 7 7 7 7 8 8 8 7 7 7 7 8 8 9 10 10 10 10 11 11 11 11 11 8 6 6 5 5 5 6 6 6
Wind_Direction
223 226 233 232 234 239 239 232 230 230 233 238 244 246 247 247 244 238 238 236 235 235 234 236 241 241 240 236 235 235 236 242 253 262 256 242 232 233 234 232 235 236 236
224 225 234 232 231 241 251 246 237 234 234 235 239 243 246 247 245 240 240 241 241 241 239 239 243 242 244 240 235 235 236 238 247 256 258 248 242 237 237 236 234 234 235
225 222 233 231 235 248 257 261 253 245 243 239 235 239 245 248 249 248 245 246 248 249 246 240 241 240 244 244 238 238 240 240 243 249 251 253 251 240 239 240 238 237 238
223 223 232 236 239 253 259 262 268 255 246 244 242 243 248 250 250 251 250 249 251 252 252 246 243 240 242 244 242 241 240 240 239 241 247 246 245 241 238 237 239 235 238
225 230 242 246 247 246 247 264 276 269 257 254 251 251 250 251 250 251 253 252 252 253 254 252 245 245 245 246 243 240 237 236 237 238 245 244 240 235 236 236 241 241 242
230 246 255 241 237 240 253 267 279 283 281 272 261 257 255 257 261 258 261 257 255 254 254 257 253 250 249 252 250 246 241 237 235 236 243 242 240 239 239 236 237 241 248
241 263 280 263 252 256 265 276 280 282 284 279 276 272 269 270 267 261 261 261 256 253 253 255 256 252 251 253 250 250 249 246 242 240 242 245 245 237 235 236 235 237 247
265 286 298 294 281 281 274 271 277 280 281 282 283 284 284 280 275 268 263 263 259 255 255 253 254 253 249 251 250 251 252 248 244 243 245 250 251 242 236 240 240 245 256
288 295 300 294 283 280 277 281 282 286 286 286 286 287 289 286 280 275 271 269 263 262 259 256 253 254 252 251 249 251 255 256 251 250 252 250 249 244 237 234 232 231 245
298 301 300 293 277 274 275 281 284 284 284 291 292 293 294 292 284 281 276 272 270 270 268 262 255 254 255 251 248 248 251 255 254 252 249 246 243 240 234 229 229 231 235
308 307 304 297 284 279 282 284 286 287 288 291 291 294 294 294 287 283 280 277 274 275 273 270 262 260 259 254 253 251 254 255 254 249 247 245 241 237 232 232 230 227 229
313 309 306 304 298 293 290 291 290 290 288 290 294 298 300 300 294 284 284 284 283 275 273 275 272 268 263 260 258 262 261 258 253 249 244 241 239 239 235 235 235 236 237
312 309 309 312 306 300 293 291 291 289 288 293 297 300 305 307 302 292 289 289 284 278 275 277 278 274 268 263 263 265 260 253 249 248 247 244 243 241 234 234 235 236 242
305 308 310 312 311 303 294 286 283 282 285 291 295 298 302 304 305 306 299 290 285 282 282 277 272 271 271 270 268 264 259 256 250 250 251 249 243 233 228 223 227 222 232
302 302 303 303 303 298 289 281 281 277 281 286 288 291 294 296 302 309 310 302 296 293 292 285 281 274 271 273 271 269 267 262 257 255 251 244 237 235 231 224 222 221 230
299 301 300 300 298 296 293 293 287 287 290 291 293 294 293 296 303 303 303 305 306 303 293 283 281 283 281 280 277 275 272 268 261 256 251 244 238 236 235 231 223 223 227
288 294 296 295 294 294 295 293 300 303 297 296 299 298 299 303 306 305 305 306 305 301 284 279 276 278 280 281 282 280 276 277 269 257 251 246 242 241 237 231 227 225 228
287 288 290 289 289 289 290 290 289 294 302 305 305 304 306 307 309 311 312 313 303 301 291 282 279 280 281 282 281 282 282 282 274 263 255 248 242 239 237 234 229 226 228
288 290 291 289 287 287 287 287 286 287 289 296 303 308 311 312 311 313 316 309 301 300 298 294 287 283 283 282 281 280 280 277 277 271 261 254 246 240 238 236 234 230 231
286 291 294 291 288 286 284 284 286 287 288 291 296 303 311 312 310 310 308 303 297 294 295 294 291 287 281 281 282 282 280 279 277 271 266 260 253 247 244 239 234 231 231
290 292 293 289 286 284 284 283 285 286 288 290 294 298 302 300 297 297 297 294 292 290 289 289 288 286 281 278 278 278 278 277 277 275 271 264 253 250 250 245 239 234 233
285 287 289 287 285 283 283 282 282 283 286 289 294 298 301 299 293 291 291 291 290 289 287 285 283 281 280 279 275 273 273 274 275 274 272 268 255 251 251 247 241 236 228
280 283 286 285 283 285 288 286 285 285 286 289 291 294 295 293 292 292 291 290 290 288 287 284 283 282 281 278 273 268 266 267 270 271 268 265 260 255 252 248 241 234 229
278 280 282 284 285 285 286 286 285 285 286 288 289 291 291 291 290 290 290 289 288 286 284 281 278 279 283 282 277 272 268 268 267 263 261 257 256 256 251 248 246 238 233
274 276 278 279 281 283 285 286 285 286 287 288 289 291 292 292 291 290 288 286 285 283 284 283 280 280 279 278 277 276 279 281 277 266 254 249 251 249 247 245 242 241 237
272 275 278 279 279 280 281 283 284 286 286 287 288 288 289 289 289 289 288 286 286 285 285 283 282 282 283 280 278 281 284 283 283 278 261 249 248 246 244 243 240 237 239
Height
1473 1474 1474 1475 1475 1475 1476 1476 1476 1476 1477 1477 1478 1479 1480 1480 1481 1482 1482 1483 1484 1484 1485 1486 1487 1489 1490 1491 1492 1493 1494 1495 1494 1493 1494 1496 1497 1497 1498 1499 1500 1501 1501
1469 1470 1470 1470 1471 1471 1471 1471 1471 1472 1472 1472 1473 1474 1475 1475 1476 1476 1477 1477 1478 1478 1480 1481 1481 1483 1484 1485 1486 1487 1488 1489 1489 1488 1488 1489 1490 1491 1492 1493 1494 1495 1496
1465 1465 1466 1466 1466 1466 1466 1467 1467 1467 1467 1468 1468 1469 1469 1470 1470 1471 1471 1471 1472 1473 1474 1475 1476 1477 1477 1478 1479 1480 1482 1482 1483 1483 1482 1483 1484 1485 1486 1487 1488 1488 1489
1461 1461 1461 1461 1461 1462 1462 1462 1462 1463 1462 1462 1463 1464 1464 1465 1465 1465 1466 1466 1466 1467 1468 1469 1469 1470 1471 1472 1473 1474 1475 1476 1477 1477 1477 1478 1478 1479 1480 1480 1481 1482 1483
1456 1456 1456 1457 1457 1457 1457 1457 1457 1458 1458 1458 1458 1458 1459 1459 1459 1460 1460 1461 1461 1461 1462 1463 1463 1464 1465 1466 1467 1468 1469 1470 1470 1471 1471 1472 1472 1473 1473 1474 1475 1475 1476
1453 1453 1453 1452 1452 1452 1452 1453 1453 1453 1453 1453 1453 1453 1453 1453 1454 1454 1455 1455 1455 1455 1456 1456 1457 1458 1459 1460 1461 1462 1463 1463 1464 1464 1465 1465 1465 1466 1468 1468 1469 1469 1469
1449 1449 1448 1448 1448 1448 1448 1449 1449 1449 1448 1448 1448 1448 1447 1447 1448 1448 1449 1450 1449 1449 1450 1450 1451 1452 1452 1453 1454 1455 1456 1456 1458 1459 1458 1458 1459 1460 1461 1462 1462 1462 1462
1446 1445 1445 1445 1444 1444 1445 1445 1445 1445 1444 1443 1443 1442 1442 1441 1442 1443 1443 1444 1443 1443 1444 1444 1444 1445 1446 1447 1447 1447 1448 1449 1450 1451 1452 1452 1453 1454 1455 1455 1456 1456 1456
1442 1442 1442 1441 1441 1441 1440 1441 1441 1440 1439 1439 1439 1437 1436 1436 1437 1437 1438 1438 1437 1437 1437 1438 1438 1438 1439 1440 1441 1440 1441 1442 1443 1444 1445 1445 1446 1447 1448 1449 1449 1449 1448
1439 1439 1438 1438 1437 1437 1437 1437 1436 1436 1435 1435 1434 1433 1432 1431 1432 1432 1432 1432 1431 1431 1431 1431 1431 1432 1433 1433 1434 1434 1434 1434 1436 1436 1437 1438 1439 1439 1440 1441 1441 1442 1441
1437 1436 1435 1435 1434 1434 1433 1433 1432 1432 1431 1430 1429 1428 1428 1427 1427 1427 1427 1426 1426 1425 1425 1424 1425 1426 1426 1427 1428 1428 1428 1429 1429 1429 1429 1430 1431 1432 1432 1433 1434 1434 1434
1434 1433 1432 1431 1431 1430 1430 1429 1428 1428 1427 1426 1425 1424 1423 1423 1422 1422 1421 1421 1421 1420 1419 1419 1419 1420 1420 1421 1421 1421 1422 1422 1422 1422 1422 1423 1423 1424 1425 1425 1426 1427 1427
1431 1430 1429 1428 1427 1427 1426 1425 1425 1424 1423 1422 1421 1420 1419 1418 1418 1417 1417 1416 1416 1416 1415 1414 1414 1414 1414 1414 1415 1415 1416 1416 1415 1415 1415 1415 1416 1417 1418 1418 1419 1420 1421
1429 1427 1426 1425 1424 1424 1423 1422 1421 1420 1420 1419 1417 1416 1415 1414 1413 1413 1412 1412 1411 1411 1410 1409 1409 1409 1408 1408 1408 1409 1409 1409 1409 1409 1409 1409 1409 1410 1410 1411 1412 1413 1414
1426 1425 1424 1422 1421 1420 1420 1419 1418 1417 1417 1416 1415 1414 1412 1410 1410 1409 1408 1407 1406 1406 1405 1404 1403 1402 1402 1402 1402 1402 1402 1402 1402 1402 1402 1402 1402 1403 1404 1405 1406 1407 1408
1423 1422 1421 1420 1418 1417 1416 1415 1414 1414 1413 1412 1411 1410 1409 1408 1406 1404 1403 1402 1401 1401 1400 1398 1397 1397 1396 1396 1396 1396 1396 1395 1396 1396 1396 1396 1396 1397 1397 1399 1400 1401 1401
1421 1419 1418 1417 1415 1414 1413 1412 1410 1410 1409 1408 1407 1406 1405 1403 1402 1400 1399 1397 1396 1395 1394 1393 1392 1392 1391 1391 1390 1390 1390 1390 1390 1390 1390 1390 1391 1391 1391 1392 1393 1394 1395
1418 1417 1415 1414 1413 1411 1410 1409 1407 1406 1404 1403 1402 1401 1400 1399 1397 1396 1394 1393 1391 1390 1389 1388 1387 1386 1386 1385 1385 1384 1384 1384 1384 1384 1384 1384 1385 1385 1385 1386 1387 1387 1388
1415 1414 1413 1411 1410 1409 1407 1406 1405 1403 1401 1400 1398 1397 1396 1394 1393 1392 1390 1388 1386 1385 1384 1383 1382 1381 1381 1380 1380 1379 1378 1378 1378 1378 1378 1378 1378 1379 1379 1380 1380 1381 1382
1412 1411 1410 1408 1407 1405 1404 1403 1401 1400 1398 1396 1395 1393 1392 1390 1388 1387 1386 1384 1382 1381 1379 1378 1377 1376 1375 1375 1374 1373 1373 1372 1372 1372 1372 1372 1372 1373 1373 1373 1374 1375 1376
1409 1408 1407 1405 1404 1402 1401 1399 1398 1396 1395 1393 1391 1390 1389 1387 1385 1383 1381 1380 1378 1376 1375 1374 1372 1371 1370 1369 1369 1368 1367 1367 1366 1366 1366 1366 1366 1367 1367 1368 1368 1369 1370
1406 1404 1403 1402 1400 1399 1397 1396 1394 1393 1391 1389 1388 1386 1385 1383 1381 1379 1377 1375 1374 1372 1371 1369 1367 1366 1365 1364 1364 1363 1362 1361 1361 1360 1360 1360 1360 1361 1361 1362 1363 1363 1364
1402 1401 1400 1398 1397 1395 1394 1392 1391 1389 1387 1386 1384 1382 1380 1378 1376 1374 1373 1371 1369 1368 1366 1364 1363 1361 1360 1359 1359 1358 1357 1356 1356 1356 1355 1355 1355 1355 1356 1356 1357 1357 1358
1399 1398 1396 1395 1393 1392 1390 1389 1387 1385 1383 1381 1380 1378 1376 1374 1372 1370 1368 1366 1364 1363 1361 1359 1358 1356 1355 1354 1354 1353 1352 1352 1352 1351 1351 1350 1350 1350 1351 1351 1352 1352 1353
1395 1394 1392 1391 1390 1388 1387 1385 1383 1381 1379 1377 1375 1374 1372 1370 1367 1365 1363 1361 1359 1358 1356 1355 1353 1352 1350 1350 1349 1348 1348 1347 1347 1346 1346 1346 1346 1346 1346 1346 1347 1348 1348
1392 1390 1389 1387 1386 1384 1383 1381 1379 1377 1375 1373 1371 1369 1367 1365 1363 1360 1358 1357 1355 1353 1352 1350 1349 1347 1346 1345 1344 1344 1343 1343 1343 1342 1342 1342 1342 1341 1342 1342 1342 1343 1344